Location: Luxembourg
(49.6117°N, 6.1300°E)
Time: 04:09:03
(UTC+02:00)

OTV 5 (USA 277) - Visible Passes

Search period start: 21 April 2018 00:00
Search period end: 01 May 2018 00:00
Orbit: 350 x 361 km, 54.5° (Epoch: 18 April)

Date Brightness Start Highest point End Pass type
(mag) Time Alt. Az. Time Alt. Az. Time Alt. Az.
21 Apr ? 00:07:46 10° WNW 00:08:38 16° NW 00:08:38 16° NW visible
21 Apr ? 21:24:20 10° SW 21:27:19 75° SSE 21:30:19 10° ENE visible
21 Apr ? 22:59:54 10° WNW 23:02:41 34° N 23:03:56 23° NE visible
22 Apr ? 00:35:32 10° WNW 00:35:37 11° WNW 00:35:37 11° WNW visible
22 Apr ? 21:52:01 10° W 21:54:57 50° NNW 21:57:53 10° ENE visible
22 Apr ? 23:27:48 10° WNW 23:30:31 30° N 23:30:42 30° N visible
23 Apr ? 22:19:57 10° WNW 22:22:43 33° N 22:25:30 10° ENE visible
23 Apr ? 23:55:33 10° WNW 23:57:19 26° NNW 23:57:19 26° NNW visible
24 Apr ? 22:47:51 10° WNW 22:50:34 30° N 22:52:12 18° NE visible
25 Apr ? 00:23:08 10° WNW 00:23:52 16° NW 00:23:52 16° NW visible
25 Apr ? 21:40:00 10° WNW 21:42:46 32° N 21:45:31 10° ENE visible
25 Apr ? 23:15:34 10° WNW 23:18:23 37° NNE 23:18:41 36° NNE visible
26 Apr ? 22:07:53 10° WNW 22:10:36 30° N 22:13:19 10° ENE visible
26 Apr ? 23:43:09 10° WNW 23:45:08 36° NW 23:45:08 36° NW visible
27 Apr ? 22:35:35 10° WNW 22:38:26 38° NNE 22:39:55 22° ENE visible
28 Apr ? 00:10:45 10° WNW 00:11:34 17° WNW 00:11:34 17° WNW visible
28 Apr ? 21:27:55 10° WNW 21:30:39 31° N 21:33:22 10° ENE visible
28 Apr ? 23:03:09 10° WNW 23:06:09 69° NNE 23:06:20 66° ENE visible
29 Apr ? 21:55:36 10° WNW 21:58:28 40° NNE 22:01:07 11° E visible
29 Apr ? 23:30:47 10° WNW 23:32:47 34° W 23:32:47 34° W visible
30 Apr ? 22:23:10 10° WNW 22:26:10 75° NNE 22:27:35 28° ESE visible
